Overview Statistics Trail Chart Weather Telemetry Raw packets
 

This is the latest recevied weather packets stored in our database for station/object HB9BB-10. If no packets are shown the sender has not sent any weather packets the latest 10 day(s).

<< 15 16 17 18 19 20 21 >>
Time Temp. Humidity Pressure Rain* Wind** Luminosity Snow
1788083942 26.11° C 32% 1035.5 hPa - - - -
1788082562 25.56° C 31% 1035.6 hPa - - - -
1788081182 25.56° C 32% 1035.7 hPa - - - -
1788079801 25° C 32% 1035.7 hPa - - - -
1788078421 25° C 32% 1035.6 hPa - - - -
1788077041 24.44° C 32% 1035.6 hPa - - - -
1788075661 23.89° C 32% 1035.6 hPa - - - -
1788074281 23.33° C 32% 1035.6 hPa - - - -
1788072900 22.22° C 32% 1035.5 hPa - - - -
1788071519 21.67° C 32% 1035.7 hPa - - - -
1788070139 21.67° C 32% 1035.8 hPa - - - -
1788068759 21.11° C 32% 1035.8 hPa - - - -
1788067379 21.11° C 32% 1035.6 hPa - - - -
1788065999 21.11° C 32% 1035.5 hPa - - - -
1788064618 21.11° C 32% 1035.4 hPa - - - -
1788063238 21.11° C 32% 1035.4 hPa - - - -
1788061858 21.67° C 32% 1035.4 hPa - - - -
1788060478 21.67° C 32% 1035.4 hPa - - - -
1788059098 21.67° C 32% 1035.4 hPa - - - -
1788057718 21.67° C 32% 1035.5 hPa - - - -
1788056337 22.22° C 32% 1035.5 hPa - - - -
1788054958 22.22° C 32% 1035.7 hPa - - - -
1788053577 22.22° C 32% 1035.7 hPa - - - -
1788052197 22.22° C 32% 1035.6 hPa - - - -
1788050817 22.22° C 32% 1035.7 hPa - - - -

* Rain since midnight (hover to see other rain measurements)
** Current wind speed in m/s (hover to see current wind gust speed)